(185) Eunike
ephemeris date magn radius delta ra dec elong phase
Opposition31 Aug 202510.62.454 AU1.445 AU22h43m-11°27'176.9°1.3°
Today18 Sep 202511.02.440 AU1.479 AU22h31m-15°47'158.0°8.9°
(185) Eunike - 2025-09-18
astro.vanbuitenen.nl


 
-1 year
-1 month
-1 day
Now
+1 day
+1 month
+1 year

The interactive orbit chart above shows the body's path through the solar system and its position at the given date. Green and blue lines are shown perpendicular to the ecliptic plane: Green if the path is above the ecliptic plane, blue if it is below. (Left-click and drag to rotate the view; Right-click and drag to move the view; Use scroll wheel to zoom in our out.)

The orbital elements of Eunike are:

            e (Eccentricity)                : 0.1270007
            a (Semimajor axis)              : 2.7389752
            i (Inclination)                 : 23.25091
            Ω (Longitude of ascending node) : 153.73586
            ω (Argument of perihelion)      : 223.97726
            M (Mean anomaly)                : 303.49376
            Epoch                           : 2025 May 05

            L (Longitude of perihelion)     : 195.29464
            B (Latitude of perihelion)      : -15.90896
            P (Orbital period in years)     : 4.53            
        

The light curve chart below shows the estimated development of the minor planet's magnitude.


The all-sky chart below shows the path of the minor planet over the same period as the light curve. The current position is marked yellow.





The following chart shows the path of the minor planet in the next few days. The field of view is optimized for (~10x50) binoculars and finderscopes. A more printer-friendly version of the same chart can be found below.




Ephemerides:
Date       Time       RA (2000)    DEC (2000)    delta   radius  elong  phase   PA    magn
2025-09-18 00:00 UT   22 31 58.3   -15 47 35     1.479    2.440  158.0    8.9    53   11.0 
2025-09-18 04:12 UT   22 31 52.3   -15 49 56     1.480    2.440  157.8    9.0    53   11.0 
2025-09-19 00:00 UT   22 31 24.0   -16 00 53     1.483    2.439  156.8    9.3    53   11.0 
2025-09-20 00:00 UT   22 30 50.6   -16 13 58     1.488    2.438  155.6    9.8    54   11.1 
2025-09-21 00:00 UT   22 30 18.3   -16 26 48     1.493    2.437  154.5   10.2    54   11.1 
2025-09-22 00:00 UT   22 29 47.0   -16 39 23     1.498    2.437  153.3   10.7    55   11.1 
2025-09-23 00:00 UT   22 29 16.8   -16 51 43     1.503    2.436  152.1   11.1    55   11.1 
2025-09-24 00:00 UT   22 28 47.8   -17 03 47     1.509    2.435  151.0   11.5    56   11.2 
2025-09-25 00:00 UT   22 28 20.0   -17 15 35     1.515    2.435  149.8   12.0    56   11.2 
2025-09-26 00:00 UT   22 27 53.5   -17 27 07     1.521    2.434  148.7   12.4    56   11.2 
2025-09-27 00:00 UT   22 27 28.2   -17 38 22     1.527    2.433  147.5   12.8    57   11.2 
2025-09-28 00:00 UT   22 27 04.3   -17 49 20     1.534    2.432  146.4   13.2    57   11.3 
2025-09-29 00:00 UT   22 26 41.8   -18 00 01     1.540    2.432  145.3   13.6    57   11.3 
2025-09-30 00:00 UT   22 26 20.6   -18 10 25     1.547    2.431  144.2   14.0    57   11.3 
2025-10-01 00:00 UT   22 26 00.8   -18 20 32     1.554    2.430  143.0   14.3    58   11.3 
2025-10-02 00:00 UT   22 25 42.5   -18 30 21     1.562    2.430  141.9   14.7    58   11.3 
2025-10-03 00:00 UT   22 25 25.7   -18 39 53     1.569    2.429  140.8   15.1    58   11.4 
2025-10-04 00:00 UT   22 25 10.4   -18 49 07     1.577    2.428  139.8   15.4    58   11.4 
2025-10-05 00:00 UT   22 24 56.6   -18 58 03     1.585    2.428  138.7   15.8    59   11.4 
2025-10-06 00:00 UT   22 24 44.3   -19 06 42     1.593    2.427  137.6   16.1    59   11.4 
2025-10-07 00:00 UT   22 24 33.6   -19 15 03     1.602    2.426  136.5   16.5    59   11.5 
2025-10-08 00:00 UT   22 24 24.4   -19 23 07     1.610    2.426  135.5   16.8    59   11.5 
2025-10-09 00:00 UT   22 24 16.8   -19 30 53     1.619    2.425  134.4   17.1    60   11.5 
2025-10-10 00:00 UT   22 24 10.8   -19 38 21     1.627    2.424  133.4   17.4    60   11.5 
2025-10-11 00:00 UT   22 24 06.3   -19 45 32     1.636    2.424  132.3   17.7    60   11.5 
2025-10-12 00:00 UT   22 24 03.5   -19 52 26     1.646    2.423  131.3   18.0    60   11.6 
2025-10-13 00:00 UT   22 24 02.3   -19 59 02     1.655    2.422  130.3   18.3    60   11.6 
2025-10-14 00:00 UT   22 24 02.6   -20 05 21     1.664    2.422  129.2   18.6    61   11.6 
2025-10-15 00:00 UT   22 24 04.7   -20 11 22     1.674    2.421  128.2   18.9    61   11.6 
2025-10-16 00:00 UT   22 24 08.3   -20 17 07     1.684    2.421  127.2   19.1    61   11.7 
2025-10-17 00:00 UT   22 24 13.5   -20 22 34     1.694    2.420  126.2   19.4    61   11.7 
2025-10-18 00:00 UT   22 24 20.4   -20 27 45     1.704    2.419  125.2   19.7    61   11.7 


    Terminology:
            
    delta:  distance between minor planet and earth in AU
    radius: distance between minor planet and sun in AU
    magn:   magnitude (brightness) estimate    
    ra:     right ascension in hours (24h = 360deg)
    dec:    declination in degrees
    elong:  elongation in degrees (angle sun-earth-minor planet)    
    phase:  phase angle in degrees (angle sun-minor planet-earth)        
    AU:     Astronomical Unit (mean distance between earth and sun: 149597870.7 km
    

Orbital elements provided by the MPC (Minor Planet Center).
Calculations by a modified version of AAPlus, a C# implementation of the AA+ project by PJ Naughter from the algorithms presented in the book "Astronomical Algorithms" by Jean Meeus.
NGC2000 dso catalog and star labels from VizieR as provided by the Strasbourg astronomical Data Center.
Tycho2 catalog from the ESO archive.